,,PA_Meas_PMT16A,,PR_Meas_QMR101_102,,RH_Meas_QMH101,,SR_Meas_QMS101,,TA_Meas_QMH101,,GenWind,,GenWind,
time,status,PA,status,PR,status,RH,status,SR,status,TA,status,DirAvg,status,SpdAvg,
2012-02-18, 00:00:05,VALID,917.65,VALID,0,VALID,92.472,VALID,0,VALID,20.1513,VALID,349,VALID,0.305078,
2012-02-18, 00:01:05,VALID,917.651,VALID,0,VALID,92.5102,VALID,0,VALID,20.0944,VALID,349,VALID,0.248047,
2012-02-18, 00:02:05,VALID,917.648,VALID,0,VALID,93.1734,VALID,0,VALID,20.0749,VALID,349,VALID,0.489062,
2012-02-18, 00:03:05,VALID,917.629,VALID,0,VALID,93.4631,VALID,0,VALID,20.0343,VALID,349,VALID,0.143359,
2012-02-18, 00:04:05,VALID,917.646,VALID,0,VALID,93.829,VALID,0,VALID,20.0538,VALID,349,VALID,0.139062,
2012-02-18, 00:05:05,VALID,917.593,VALID,0,VALID,93.951,VALID,0,VALID,20.0343,VALID,349,VALID,0.0296875,
2012-02-18, 00:06:05,VALID,917.572,VALID,0,VALID,94.2483,VALID,0,VALID,20.0733,VALID,349,VALID,0.413672,
2012-02-18, 00:07:05,VALID,917.609,VALID,0,VALID,94.4084,VALID,0,VALID,20.0944,VALID,349,VALID,0.38125,
2012-02-18, 00:08:05,VALID,917.6,VALID,0,VALID,94.4465,VALID,0,VALID,20.0538,VALID,349,VALID,0.0363281,
2012-02-18, 00:09:05,VALID,917.625,VALID,0,VALID,94.5837,VALID,0,VALID,20.0538,VALID,349,VALID,0,
2012-02-18, 00:10:05,VALID,917.62,VALID,0,VALID,94.7133,VALID,0,VALID,20.0733,VALID,349,VALID,0.348828,
2012-02-18, 00:11:05,VALID,917.637,VALID,0,VALID,94.7972,VALID,0,VALID,20.0538,VALID,349,VALID,0.489062,
2012-02-18, 00:12:05,VALID,917.615,VALID,0,VALID,94.8277,VALID,0,VALID,20.0148,VALID,349,VALID,0.645312,
2012-02-18, 00:13:05,VALID,917.565,VALID,0,VALID,94.8734,VALID,0,VALID,19.9953,VALID,349,VALID,0.639453,
2012-02-18, 00:14:05,VALID,917.56,VALID,0,VALID,94.9039,VALID,0,VALID,19.9368,VALID,349,VALID,0.749219,
2012-02-18, 00:15:05,VALID,917.522,VALID,0,VALID,94.8658,VALID,0,VALID,19.8978,VALID,349,VALID,0.973047,
2012-02-18, 00:16:05,VALID,917.512,VALID,0,VALID,95.1097,VALID,0,VALID,19.8588,VALID,26,VALID,0.891016,
2012-02-18, 00:17:05,VALID,917.518,VALID,0,VALID,95.1783,VALID,0,VALID,19.8588,VALID,26,VALID,1.0375,
2012-02-18, 00:18:05,VALID,917.51,VALID,0,VALID,95.2317,VALID,0,VALID,19.8198,VALID,26,VALID,1.07109,
2012-02-18, 00:19:05,VALID,917.483,VALID,0,VALID,95.2165,VALID,0,VALID,19.8198,VALID,26,VALID,0.804688,
2012-02-18, 00:20:05,VALID,917.49,VALID,0,VALID,95.1936,VALID,0,VALID,19.8198,VALID,26,VALID,0.6,
2012-02-18, 00:21:05,VALID,917.459,VALID,0,VALID,95.1097,VALID,0,VALID,19.8198,VALID,26,VALID,0.478906,
2012-02-18, 00:22:05,VALID,917.471,VALID,0,VALID,95.003,VALID,0,VALID,19.7808,VALID,26,VALID,0.459375,
2012-02-18, 00:23:05,VALID,917.454,VALID,0,VALID,94.9115,VALID,0,VALID,19.7808,VALID,26,VALID,0.528516,
2012-02-18, 00:24:05,VALID,917.397,VALID,0,VALID,94.7591,VALID,0,VALID,19.7418,VALID,26,VALID,0.7,
2012-02-18, 00:25:05,VALID,917.373,VALID,0,VALID,94.6828,VALID,0,VALID,19.7223,VALID,27,VALID,0.410156,
2012-02-18, 00:26:05,VALID,917.32,VALID,0,VALID,94.5761,VALID,0,VALID,19.7223,VALID,26,VALID,0.241406,
2012-02-18, 00:27:05,VALID,917.313,VALID,0,VALID,94.4694,VALID,0,VALID,19.7013,VALID,27,VALID,0.330078,
2012-02-18, 00:28:05,VALID,917.298,VALID,0,VALID,94.3474,VALID,0,VALID,19.7028,VALID,26,VALID,0.336328,
2012-02-18, 00:29:05,VALID,917.266,VALID,0,VALID,94.2026,VALID,0,VALID,19.7028,VALID,26,VALID,0.303516,
2012-02-18, 00:30:05,VALID,917.281,VALID,0,VALID,94.1492,VALID,0,VALID,19.6623,VALID,26,VALID,0.205078,
2012-02-18, 00:31:05,VALID,917.269,VALID,0,VALID,93.8671,VALID,0,VALID,19.6638,VALID,26,VALID,0.808594,
2012-02-18, 00:32:05,VALID,917.285,VALID,0,VALID,93.6003,VALID,0,VALID,19.6443,VALID,26,VALID,1.24922,
2012-02-18, 00:33:05,VALID,917.272,VALID,0,VALID,93.1734,VALID,0,VALID,19.6638,VALID,26,VALID,1.20469,
2012-02-18, 00:34:05,VALID,917.285,VALID,0,VALID,92.4644,VALID,0,VALID,19.7418,VALID,26,VALID,1.40156,
2012-02-18, 00:35:05,VALID,917.256,VALID,0,VALID,91.9155,VALID,0,VALID,19.8003,VALID,26,VALID,1.16328,
2012-02-18, 00:36:05,VALID,917.281,VALID,0,VALID,91.6563,VALID,0,VALID,19.8393,VALID,26,VALID,0.698438,
2012-02-18, 00:37:05,VALID,917.253,VALID,0,VALID,91.1989,VALID,0,VALID,19.8393,VALID,26,VALID,0.664453,
2012-02-18, 00:38:05,VALID,917.257,VALID,0,VALID,91.2218,VALID,0,VALID,19.8588,VALID,26,VALID,0.501562,
2012-02-18, 00:39:05,VALID,917.221,VALID,0,VALID,91.0083,VALID,0,VALID,19.8768,VALID,26,VALID,0.651563,
2012-02-18, 00:40:05,VALID,917.216,VALID,0,VALID,90.833,VALID,0,VALID,19.9173,VALID,26,VALID,0.481641,
2012-02-18, 00:41:05,VALID,917.227,VALID,0,VALID,90.6958,VALID,0,VALID,19.9758,VALID,340,VALID,1.17891,
2012-02-18, 00:42:05,VALID,917.207,VALID,0,VALID,90.1774,VALID,0,VALID,20.1318,VALID,340,VALID,0.469141,
2012-02-18, 00:43:05,VALID,917.155,VALID,0,VALID,88.9348,VALID,0.107441,VALID,20.2668,VALID,340,VALID,0.49375,
2012-02-18, 00:44:05,VALID,917.163,VALID,0,VALID,88.1877,VALID,0,VALID,20.4033,VALID,340,VALID,0.426953,
2012-02-18, 00:45:05,VALID,917.138,VALID,0,VALID,87.7989,VALID,0.107441,VALID,20.4618,VALID,340,VALID,0.477344,
2012-02-18, 00:46:05,VALID,917.104,VALID,0,VALID,87.5092,VALID,0,VALID,20.4813,VALID,340,VALID,0.307031,
2012-02-18, 00:47:05,VALID,917.076,VALID,0,VALID,87.5168,VALID,0.107441,VALID,20.5204,VALID,340,VALID,0.434375,
2012-02-18, 00:48:05,VALID,917.042,VALID,0,VALID,87.7074,VALID,0,VALID,20.4813,VALID,340,VALID,0.0648438,
2012-02-18, 00:49:05,VALID,917.031,VALID,0,VALID,87.9285,VALID,0.107441,VALID,20.4423,VALID,340,VALID,0,
2012-02-18, 00:50:05,VALID,916.987,VALID,0,VALID,88.0581,VALID,0.107441,VALID,20.4033,VALID,340,VALID,0,
2012-02-18, 00:51:05,VALID,916.95,VALID,0,VALID,88.0352,VALID,0.107441,VALID,20.4033,VALID,340,VALID,0.2875,
2012-02-18, 00:52:05,VALID,916.904,VALID,0,VALID,88.2563,VALID,0.107441,VALID,20.4033,VALID,340,VALID,0,
2012-02-18, 00:53:05,VALID,916.861,VALID,0,VALID,88.8585,VALID,0.107441,VALID,20.3838,VALID,340,VALID,0.328125,
2012-02-18, 00:54:05,VALID,916.831,VALID,0,VALID,89.6666,VALID,0,VALID,20.3253,VALID,340,VALID,0.0410156,
2012-02-18, 00:55:05,VALID,916.803,VALID,0,VALID,89.6895,VALID,0.107441,VALID,20.2278,VALID,340,VALID,0.402344,
2012-02-18, 00:56:05,VALID,916.797,VALID,0,VALID,89.8648,VALID,0,VALID,20.1303,VALID,340,VALID,0.605859,
2012-02-18, 00:57:05,VALID,916.74,VALID,0,VALID,89.7352,VALID,0,VALID,20.0133,VALID,340,VALID,0.868359,
2012-02-18, 00:58:05,VALID,916.715,VALID,0,VALID,90.5891,VALID,0,VALID,19.9368,VALID,35,VALID,1.13398,
2012-02-18, 00:59:05,VALID,916.707,VALID,0,VALID,90.5433,VALID,0,VALID,19.8978,VALID,35,VALID,0.991016,
2012-02-18, 01:00:05,VALID,916.659,VALID,0,VALID,90.6958,VALID,0,VALID,19.8588,VALID,35,VALID,0.882031,
2012-02-18, 01:01:05,VALID,916.661,VALID,0,VALID,90.8864,VALID,0,VALID,19.8018,VALID,35,VALID,0.971484,
2012-02-18, 01:02:05,VALID,916.655,VALID,0,VALID,91.1532,VALID,0,VALID,19.7208,VALID,35,VALID,0.629297,
2012-02-18, 01:03:05,VALID,916.615,VALID,0,VALID,91.3209,VALID,0,VALID,19.6233,VALID,35,VALID,0.699609,
2012-02-18, 01:04:05,VALID,916.607,VALID,0,VALID,91.9003,VALID,0,VALID,19.6263,VALID,35,VALID,0.639844,
2012-02-18, 01:05:05,VALID,916.607,VALID,0,VALID,92.129,VALID,0,VALID,19.5468,VALID,35,VALID,0.308984,
2012-02-18, 01:06:05,VALID,916.586,VALID,0,VALID,92.4187,VALID,0,VALID,19.5468,VALID,35,VALID,0.317187,
2012-02-18, 01:07:05,VALID,916.588,VALID,0,VALID,92.5025,VALID,0,VALID,19.5273,VALID,35,VALID,0.411328,
2012-02-18, 01:08:05,VALID,916.55,VALID,0,VALID,92.4797,VALID,0,VALID,19.5483,VALID,35,VALID,0.45625,
2012-02-18, 01:09:05,VALID,916.506,VALID,0,VALID,92.3806,VALID,0,VALID,19.5288,VALID,35,VALID,0.539063,
2012-02-18, 01:10:05,VALID,916.48,VALID,0,VALID,92.3653,VALID,0,VALID,19.4688,VALID,35,VALID,0.613281,
2012-02-18, 01:11:05,VALID,916.498,VALID,0,VALID,92.5483,VALID,0,VALID,19.4298,VALID,35,VALID,0.781641,
2012-02-18, 01:12:05,VALID,916.491,VALID,0,VALID,92.8151,VALID,0,VALID,19.4298,VALID,35,VALID,0.792969,
2012-02-18, 01:13:05,VALID,916.452,VALID,0,VALID,92.8608,VALID,0,VALID,19.4493,VALID,35,VALID,0.978906,
2012-02-18, 01:14:05,VALID,916.464,VALID,0,VALID,92.6779,VALID,0,VALID,19.4883,VALID,35,VALID,0.858984,
2012-02-18, 01:15:05,VALID,916.471,VALID,0,VALID,92.3958,VALID,0,VALID,19.4883,VALID,35,VALID,0.609375,
2012-02-18, 01:16:05,VALID,916.465,VALID,0,VALID,92.2281,VALID,0,VALID,19.4673,VALID,33,VALID,1.025,
2012-02-18, 01:17:05,VALID,916.452,VALID,0,VALID,92.0146,VALID,0,VALID,19.5468,VALID,360,VALID,0.927734,
2012-02-18, 01:18:05,VALID,916.406,VALID,0,VALID,91.6258,VALID,0,VALID,19.5648,VALID,16,VALID,0.899219,
2012-02-18, 01:19:05,VALID,916.393,VALID,0,VALID,91.3361,VALID,0,VALID,19.6233,VALID,16,VALID,0.709375,
2012-02-18, 01:20:05,VALID,916.411,VALID,0,VALID,91.1684,VALID,0,VALID,19.6638,VALID,16,VALID,0.642969,
2012-02-18, 01:21:05,VALID,916.374,VALID,0,VALID,91.0922,VALID,0,VALID,19.7028,VALID,16,VALID,0.93125,
2012-02-18, 01:22:05,VALID,916.344,VALID,0,VALID,90.9016,VALID,0,VALID,19.7208,VALID,16,VALID,0.942969,
2012-02-18, 01:23:05,VALID,916.34,VALID,0,VALID,90.7491,VALID,0,VALID,19.7613,VALID,16,VALID,0.835547,
2012-02-18, 01:24:05,VALID,916.338,VALID,0,VALID,90.8864,VALID,0,VALID,19.7208,VALID,16,VALID,1.12383,
2012-02-18, 01:25:05,VALID,916.332,VALID,0,VALID,90.9245,VALID,0,VALID,19.6818,VALID,1,VALID,0.924219,
2012-02-18, 01:26:05,VALID,916.287,VALID,0,VALID,91.3438,VALID,0,VALID,19.6443,VALID,1,VALID,0.913281,
2012-02-18, 01:27:05,VALID,916.302,VALID,0,VALID,91.4505,VALID,0,VALID,19.5843,VALID,1,VALID,0.751562,
2012-02-18, 01:28:05,VALID,916.283,VALID,0,VALID,91.9613,VALID,0,VALID,19.5663,VALID,1,VALID,0.585156,
2012-02-18, 01:29:05,VALID,916.264,VALID,0,VALID,92.3806,VALID,0,VALID,19.5468,VALID,1,VALID,0.311719,
2012-02-18, 01:30:05,VALID,916.238,VALID,0,VALID,92.6855,VALID,0,VALID,19.5468,VALID,1,VALID,0,
2012-02-18, 01:31:05,VALID,916.243,VALID,0,VALID,92.6397,VALID,0,VALID,19.5663,VALID,1,VALID,0,
2012-02-18, 01:32:05,VALID,916.24,VALID,0,VALID,92.5711,VALID,0,VALID,19.5468,VALID,1,VALID,0.0339844,
2012-02-18, 01:33:05,VALID,916.253,VALID,0,VALID,92.5254,VALID,0,VALID,19.5663,VALID,1,VALID,0.244922,
2012-02-18, 01:34:05,VALID,916.238,VALID,0,VALID,92.5711,VALID,0,VALID,19.5663,VALID,1,VALID,0.182031,
2012-02-18, 01:35:05,VALID,916.243,VALID,0,VALID,92.3424,VALID,0,VALID,19.5468,VALID,1,VALID,0,
2012-02-18, 01:36:05,VALID,916.224,VALID,0,VALID,92.0451,VALID,0,VALID,19.5468,VALID,1,VALID,0.00351562,
2012-02-18, 01:37:05,VALID,916.205,VALID,0,VALID,91.9689,VALID,0,VALID,19.5468,VALID,1,VALID,0,
2012-02-18, 01:38:05,VALID,916.189,VALID,0,VALID,91.9994,VALID,0,VALID,19.5468,VALID,1,VALID,0,
2012-02-18, 01:39:05,VALID,916.177,VALID,0,VALID,91.7707,VALID,0,VALID,19.5273,VALID,1,VALID,0,
2012-02-18, 01:40:04,VALID,916.169,VALID,0,VALID,91.7707,VALID,0,VALID,19.5273,VALID,1,VALID,0.333594,
2012-02-18, 01:41:04,VALID,916.147,VALID,0,VALID,91.8469,VALID,0,VALID,19.5063,VALID,1,VALID,0.250391,
2012-02-18, 01:42:04,VALID,916.138,VALID,0,VALID,91.6868,VALID,0,VALID,19.5273,VALID,1,VALID,0.119531,
2012-02-18, 01:43:04,VALID,916.116,VALID,0,VALID,91.7783,VALID,0,VALID,19.5663,VALID,1,VALID,0.636719,
2012-02-18, 01:44:04,VALID,916.13,VALID,0,VALID,91.6563,VALID,0,VALID,19.5858,VALID,1,VALID,0.446484,
2012-02-18, 01:45:04,VALID,916.14,VALID,0,VALID,91.3666,VALID,0,VALID,19.6443,VALID,360,VALID,0.541406,
2012-02-18, 01:46:04,VALID,916.118,VALID,0,VALID,91.6716,VALID,0,VALID,19.6818,VALID,1,VALID,0.455078,
2012-02-18, 01:47:04,VALID,916.108,VALID,0,VALID,92.1747,VALID,0,VALID,19.7013,VALID,1,VALID,0.375781,
2012-02-18, 01:48:04,VALID,916.095,VALID,0,VALID,92.2891,VALID,0,VALID,19.7223,VALID,1,VALID,0.203125,
2012-02-18, 01:49:04,VALID,916.089,VALID,0,VALID,92.1366,VALID,0,VALID,19.6818,VALID,1,VALID,0.390234,
2012-02-18, 01:50:04,VALID,916.053,VALID,0,VALID,92.3043,VALID,0,VALID,19.7223,VALID,360,VALID,0.389844,
2012-02-18, 01:51:04,VALID,916.028,VALID,0,VALID,92.4797,VALID,0,VALID,19.7223,VALID,1,VALID,0.198437,
2012-02-18, 01:52:04,VALID,916.007,VALID,0,VALID,92.5254,VALID,0,VALID,19.7223,VALID,1,VALID,0,
2012-02-18, 01:53:04,VALID,915.987,VALID,0,VALID,92.3501,VALID,0,VALID,19.7028,VALID,1,VALID,0,
2012-02-18, 01:54:04,VALID,915.975,VALID,0,VALID,91.6487,VALID,0,VALID,19.6833,VALID,1,VALID,0,
2012-02-18, 01:55:04,VALID,915.962,VALID,0,VALID,91.3438,VALID,0,VALID,19.6233,VALID,1,VALID,0,
2012-02-18, 01:56:04,VALID,915.951,VALID,0,VALID,90.9321,VALID,0,VALID,19.6053,VALID,1,VALID,0,
2012-02-18, 01:57:04,VALID,915.931,VALID,0,VALID,91.3819,VALID,0,VALID,19.5273,VALID,1,VALID,0.00585938,
2012-02-18, 01:58:04,VALID,915.934,VALID,0,VALID,91.5801,VALID,0,VALID,19.4688,VALID,1,VALID,0,
2012-02-18, 01:59:04,VALID,915.881,VALID,0,VALID,91.5191,VALID,0,VALID,19.3308,VALID,1,VALID,0,
2012-02-18, 02:00:04,VALID,915.872,VALID,0,VALID,91.6563,VALID,0,VALID,19.2348,VALID,1,VALID,0.330859,
2012-02-18, 02:01:04,VALID,915.838,VALID,0,VALID,91.8469,VALID,0,VALID,19.0774,VALID,1,VALID,0.480078,
2012-02-18, 02:02:04,VALID,915.828,VALID,0,VALID,92.8456,VALID,0,VALID,19.0203,VALID,1,VALID,0.594531,
2012-02-18, 02:03:04,VALID,915.841,VALID,0,VALID,93.4173,VALID,0,VALID,18.9814,VALID,1,VALID,0.573438,
2012-02-18, 02:04:04,VALID,915.829,VALID,0,VALID,94.0958,VALID,0.107441,VALID,18.9619,VALID,1,VALID,0.573828,
2012-02-18, 02:05:04,VALID,915.819,VALID,0,VALID,94.012,VALID,0,VALID,18.8824,VALID,1,VALID,0.647266,
2012-02-18, 02:06:04,VALID,915.855,VALID,0,VALID,94.3245,VALID,0,VALID,18.8629,VALID,1,VALID,0.490625,
2012-02-18, 02:07:04,VALID,915.837,VALID,0,VALID,94.599,VALID,0,VALID,18.8644,VALID,1,VALID,0.249609,
2012-02-18, 02:08:04,VALID,915.843,VALID,0,VALID,94.881,VALID,0,VALID,18.9034,VALID,1,VALID,0.235938,
2012-02-18, 02:09:04,VALID,915.857,VALID,0,VALID,95.0259,VALID,0,VALID,18.9424,VALID,1,VALID,0,
2012-02-18, 02:10:04,VALID,915.863,VALID,0,VALID,94.82,VALID,0,VALID,18.9229,VALID,1,VALID,0.0121094,
2012-02-18, 02:11:04,VALID,915.879,VALID,0,VALID,94.7972,VALID,0,VALID,18.9619,VALID,1,VALID,0,
2012-02-18, 02:12:04,VALID,915.886,VALID,0,VALID,94.8582,VALID,0,VALID,18.9604,VALID,360,VALID,0.0105469,
2012-02-18, 02:13:04,VALID,915.909,VALID,0,VALID,94.7743,VALID,0,VALID,18.9994,VALID,1,VALID,0,
2012-02-18, 02:14:04,VALID,915.931,VALID,0,VALID,94.7057,VALID,0,VALID,19.0398,VALID,360,VALID,0.0105469,
2012-02-18, 02:15:04,VALID,915.972,VALID,0,VALID,94.5913,VALID,0,VALID,19.0579,VALID,1,VALID,0,
2012-02-18, 02:16:04,VALID,915.952,VALID,0,VALID,94.6218,VALID,0,VALID,19.1178,VALID,1,VALID,0.171875,
2012-02-18, 02:17:04,VALID,915.99,VALID,0,VALID,94.233,VALID,0,VALID,19.1373,VALID,1,VALID,0.0160156,
2012-02-18, 02:18:04,VALID,915.984,VALID,0,VALID,94.0043,VALID,0,VALID,19.1763,VALID,1,VALID,0.119531,
2012-02-18, 02:19:04,VALID,915.995,VALID,0,VALID,93.8519,VALID,0,VALID,19.1958,VALID,1,VALID,0.000390625,
2012-02-18, 02:20:04,VALID,915.988,VALID,0,VALID,93.4555,VALID,0,VALID,19.2348,VALID,1,VALID,0.444922,
2012-02-18, 02:21:04,VALID,916.009,VALID,0,VALID,93.0285,VALID,0,VALID,19.2543,VALID,1,VALID,0.484766,
2012-02-18, 02:22:04,VALID,916.014,VALID,0,VALID,92.4263,VALID,0,VALID,19.2543,VALID,1,VALID,0.775781,
2012-02-18, 02:23:04,VALID,916.028,VALID,0,VALID,92.0756,VALID,0,VALID,19.2543,VALID,1,VALID,0.627734,
2012-02-18, 02:24:04,VALID,916.021,VALID,0,VALID,91.6411,VALID,0,VALID,19.2933,VALID,1,VALID,0.339844,
2012-02-18, 02:25:04,VALID,916.04,VALID,0,VALID,91.2904,VALID,0.107441,VALID,19.2933,VALID,1,VALID,0.446484,
2012-02-18, 02:26:04,VALID,916.059,VALID,0,VALID,91.3666,VALID,0,VALID,19.2738,VALID,1,VALID,0.289453,
2012-02-18, 02:27:04,VALID,916.062,VALID,0,VALID,91.1989,VALID,0,VALID,19.2933,VALID,1,VALID,0.398047,
2012-02-18, 02:28:04,VALID,916.073,VALID,0,VALID,91.0846,VALID,0,VALID,19.2528,VALID,360,VALID,0.458984,
2012-02-18, 02:29:04,VALID,916.043,VALID,0,VALID,91.0617,VALID,0,VALID,19.2334,VALID,1,VALID,0.405469,
2012-02-18, 02:30:04,VALID,916.035,VALID,0,VALID,91.2904,VALID,0.107441,VALID,19.2543,VALID,1,VALID,0.379297,
2012-02-18, 02:31:04,VALID,916.003,VALID,0,VALID,91.298,VALID,0,VALID,19.2139,VALID,1,VALID,0.188672,
2012-02-18, 02:32:04,VALID,915.984,VALID,0,VALID,91.7249,VALID,0,VALID,19.2348,VALID,360,VALID,0.423047,
2012-02-18, 02:33:04,VALID,915.957,VALID,0,VALID,91.6945,VALID,0,VALID,19.2543,VALID,360,VALID,0.0570313,
2012-02-18, 02:34:04,VALID,915.92,VALID,0,VALID,91.5496,VALID,0,VALID,19.2738,VALID,360,VALID,0.180469,
2012-02-18, 02:35:04,VALID,915.902,VALID,0,VALID,91.0617,VALID,0,VALID,19.2933,VALID,360,VALID,0,
2012-02-18, 02:36:04,VALID,915.84,VALID,0,VALID,91.0007,VALID,0,VALID,19.2948,VALID,1,VALID,0,
2012-02-18, 02:37:04,VALID,915.835,VALID,0,VALID,91.3285,VALID,0,VALID,19.2933,VALID,1,VALID,0,
2012-02-18, 02:38:04,VALID,915.826,VALID,0,VALID,91.7173,VALID,0,VALID,19.3338,VALID,360,VALID,0,
2012-02-18, 02:39:04,VALID,915.824,VALID,0,VALID,91.42,VALID,0,VALID,19.2933,VALID,1,VALID,0,
2012-02-18, 02:40:04,VALID,915.76,VALID,0,VALID,91.3895,VALID,0,VALID,19.2933,VALID,1,VALID,0,
2012-02-18, 02:41:04,VALID,915.774,VALID,0,VALID,91.0312,VALID,0,VALID,19.2543,VALID,360,VALID,0,
2012-02-18, 02:42:04,VALID,915.772,VALID,0,VALID,91.4962,VALID,0,VALID,19.2738,VALID,1,VALID,0.179297,
2012-02-18, 02:43:04,VALID,915.761,VALID,0,VALID,92.1519,VALID,0,VALID,19.3128,VALID,1,VALID,0.194531,
2012-02-18, 02:44:04,VALID,915.728,VALID,0,VALID,91.7478,VALID,0,VALID,19.3128,VALID,360,VALID,0,
2012-02-18, 02:45:04,VALID,915.729,VALID,0,VALID,91.3895,VALID,0.107441,VALID,19.2918,VALID,360,VALID,0.723437,
2012-02-18, 02:46:04,VALID,915.763,VALID,0,VALID,90.6577,VALID,0,VALID,19.3323,VALID,360,VALID,0.000390625,
2012-02-18, 02:47:04,VALID,915.727,VALID,0,VALID,90.6119,VALID,0,VALID,19.3323,VALID,360,VALID,0.3,
2012-02-18, 02:48:04,VALID,915.747,VALID,0,VALID,90.7339,VALID,0,VALID,19.3113,VALID,360,VALID,0.0902344,
2012-02-18, 02:49:04,VALID,915.736,VALID,0,VALID,90.7415,VALID,0,VALID,19.3518,VALID,360,VALID,0.213672,
2012-02-18, 02:50:04,VALID,915.714,VALID,0,VALID,90.65,VALID,0,VALID,19.3113,VALID,1,VALID,0.364453,
2012-02-18, 02:51:04,VALID,915.699,VALID,0,VALID,90.4366,VALID,0,VALID,19.2918,VALID,360,VALID,0.329297,
2012-02-18, 02:52:04,VALID,915.678,VALID,0,VALID,89.72,VALID,0,VALID,19.3323,VALID,1,VALID,0.277734,
2012-02-18, 02:53:04,VALID,915.667,VALID,0,VALID,89.72,VALID,0,VALID,19.3518,VALID,360,VALID,0.0433594,
2012-02-18, 02:54:04,VALID,915.643,VALID,0,VALID,89.8801,VALID,0,VALID,19.3713,VALID,360,VALID,0.04375,
2012-02-18, 02:55:04,VALID,915.594,VALID,0,VALID,89.7352,VALID,0,VALID,19.3308,VALID,360,VALID,0,
2012-02-18, 02:56:04,VALID,915.561,VALID,0,VALID,89.8572,VALID,0,VALID,19.2738,VALID,360,VALID,0.473828,
2012-02-18, 02:57:04,VALID,915.534,VALID,0,VALID,90.124,VALID,0.107441,VALID,19.1958,VALID,360,VALID,0.832422,
2012-02-18, 02:58:04,VALID,915.499,VALID,0,VALID,90.6119,VALID,0.107441,VALID,19.1568,VALID,1,VALID,0.86875,
2012-02-18, 02:59:04,VALID,915.492,VALID,0,VALID,90.8025,VALID,0,VALID,19.1568,VALID,1,VALID,0.801953,
2012-02-18, 03:00:04,VALID,915.468,VALID,0,VALID,90.894,VALID,0,VALID,19.1958,VALID,1,VALID,0.421875,
2012-02-18, 03:01:04,VALID,915.478,VALID,0,VALID,90.7339,VALID,0,VALID,19.2153,VALID,360,VALID,0.376563,
2012-02-18, 03:02:04,VALID,915.494,VALID,0,VALID,90.5281,VALID,0.107441,VALID,19.2348,VALID,360,VALID,0,
2012-02-18, 03:03:04,VALID,915.501,VALID,0,VALID,90.4595,VALID,0,VALID,19.2139,VALID,1,VALID,0.157422,
2012-02-18, 03:04:04,VALID,915.482,VALID,0,VALID,90.2689,VALID,0,VALID,19.2139,VALID,1,VALID,0,
2012-02-18, 03:05:04,VALID,915.505,VALID,0,VALID,90.1774,VALID,0.107441,VALID,19.1944,VALID,1,VALID,0,
2012-02-18, 03:06:04,VALID,915.492,VALID,0,VALID,90.2612,VALID,0,VALID,19.2153,VALID,1,VALID,0,
2012-02-18, 03:07:04,VALID,915.481,VALID,0,VALID,90.3756,VALID,0,VALID,19.1763,VALID,360,VALID,0,
2012-02-18, 03:08:04,VALID,915.477,VALID,0,VALID,90.5738,VALID,0,VALID,19.1763,VALID,1,VALID,0.474219,
2012-02-18, 03:09:04,VALID,915.469,VALID,0,VALID,90.5204,VALID,0.107441,VALID,19.1944,VALID,360,VALID,0.0746094,
2012-02-18, 03:10:04,VALID,915.49,VALID,0,VALID,90.2308,VALID,0.107441,VALID,19.2139,VALID,360,VALID,0.250391,
2012-02-18, 03:11:04,VALID,915.475,VALID,0,VALID,90.1698,VALID,0,VALID,19.2543,VALID,1,VALID,0.144141,
2012-02-18, 03:12:04,VALID,915.464,VALID,0,VALID,90.2917,VALID,0,VALID,19.2753,VALID,360,VALID,0.547656,
2012-02-18, 03:13:04,VALID,915.457,VALID,0,VALID,90.2384,VALID,0,VALID,19.2738,VALID,1,VALID,0.957422,
2012-02-18, 03:14:04,VALID,915.438,VALID,0,VALID,90.1164,VALID,0,VALID,19.2933,VALID,360,VALID,0.832812,
2012-02-18, 03:15:04,VALID,915.449,VALID,0,VALID,90.1926,VALID,0,VALID,19.2933,VALID,1,VALID,0.919922,
2012-02-18, 03:16:04,VALID,915.407,VALID,0,VALID,90.124,VALID,0,VALID,19.3323,VALID,359,VALID,0.922266,
2012-02-18, 03:17:04,VALID,915.424,VALID,0,VALID,90.063,VALID,0,VALID,19.3308,VALID,359,VALID,1.25,
2012-02-18, 03:18:04,VALID,915.392,VALID,0,VALID,89.9106,VALID,0.107441,VALID,19.3713,VALID,359,VALID,0.836719,
2012-02-18, 03:19:04,VALID,915.382,VALID,0,VALID,89.8801,VALID,0,VALID,19.3698,VALID,359,VALID,0.699219,
2012-02-18, 03:20:04,VALID,915.385,VALID,0,VALID,89.9563,VALID,0,VALID,19.3503,VALID,359,VALID,0.830859,
2012-02-18, 03:21:04,VALID,915.361,VALID,0,VALID,89.9029,VALID,0.107441,VALID,19.3518,VALID,359,VALID,0.788281,
2012-02-18, 03:22:04,VALID,915.357,VALID,0,VALID,90.0325,VALID,0,VALID,19.2918,VALID,359,VALID,0.754687,
2012-02-18, 03:23:04,VALID,915.349,VALID,0,VALID,90.1012,VALID,0,VALID,19.2723,VALID,359,VALID,0.512891,
2012-02-18, 03:24:04,VALID,915.349,VALID,0,VALID,90.2689,VALID,0,VALID,19.2738,VALID,359,VALID,0.539453,
2012-02-18, 03:25:04,VALID,915.353,VALID,0,VALID,90.2841,VALID,0.107441,VALID,19.2528,VALID,359,VALID,0.765625,
2012-02-18, 03:26:04,VALID,915.344,VALID,0,VALID,90.1698,VALID,0,VALID,19.2738,VALID,359,VALID,0.600781,
2012-02-18, 03:27:04,VALID,915.343,VALID,0,VALID,89.8877,VALID,0,VALID,19.2933,VALID,359,VALID,0.567578,
2012-02-18, 03:28:04,VALID,915.342,VALID,0,VALID,89.3846,VALID,0,VALID,19.3128,VALID,359,VALID,0.588281,
2012-02-18, 03:29:04,VALID,915.351,VALID,0,VALID,89.415,VALID,0,VALID,19.3518,VALID,359,VALID,0.596875,
2012-02-18, 03:30:04,VALID,915.353,VALID,0,VALID,89.072,VALID,0,VALID,19.3698,VALID,359,VALID,0.275,
2012-02-18, 03:31:04,VALID,915.364,VALID,0,VALID,88.8204,VALID,0,VALID,19.4088,VALID,359,VALID,0.379297,
2012-02-18, 03:32:04,VALID,915.365,VALID,0,VALID,88.95,VALID,0.107441,VALID,19.4673,VALID,359,VALID,0.0886719,
2012-02-18, 03:33:04,VALID,915.352,VALID,0,VALID,88.8509,VALID,0,VALID,19.5078,VALID,359,VALID,0,
2012-02-18, 03:34:04,VALID,915.342,VALID,0,VALID,88.6375,VALID,0,VALID,19.4883,VALID,359,VALID,0.417188,
2012-02-18, 03:35:04,VALID,915.325,VALID,0,VALID,88.3935,VALID,0,VALID,19.4883,VALID,359,VALID,0.267188,
2012-02-18, 03:36:04,VALID,915.32,VALID,0,VALID,88.0581,VALID,0,VALID,19.4883,VALID,359,VALID,0.384375,
2012-02-18, 03:37:04,VALID,915.284,VALID,0,VALID,88.2792,VALID,0,VALID,19.4478,VALID,359,VALID,0.279297,
2012-02-18, 03:38:04,VALID,915.271,VALID,0,VALID,88.7747,VALID,0,VALID,19.3713,VALID,359,VALID,0.196875,
2012-02-18, 03:39:04,VALID,915.271,VALID,0,VALID,89.3464,VALID,0,VALID,19.2738,VALID,359,VALID,0.05625,
2012-02-18, 03:40:04,VALID,915.257,VALID,0,VALID,89.7429,VALID,0,VALID,19.1944,VALID,359,VALID,0,
2012-02-18, 03:41:04,VALID,915.276,VALID,0,VALID,89.6361,VALID,0,VALID,19.1554,VALID,359,VALID,0,
2012-02-18, 03:42:04,VALID,915.278,VALID,0,VALID,89.7429,VALID,0,VALID,19.1958,VALID,359,VALID,0,
2012-02-18, 03:43:04,VALID,915.242,VALID,0,VALID,89.7276,VALID,0,VALID,19.1958,VALID,359,VALID,0,
2012-02-18, 03:44:04,VALID,915.261,VALID,0,VALID,89.72,VALID,0,VALID,19.1958,VALID,359,VALID,0.0398437,
2012-02-18, 03:45:04,VALID,915.297,VALID,0,VALID,89.4455,VALID,0.107441,VALID,19.1568,VALID,359,VALID,0,
2012-02-18, 03:46:04,VALID,915.248,VALID,0,VALID,89.8115,VALID,0,VALID,19.0788,VALID,359,VALID,0,
2012-02-18, 03:47:04,VALID,915.261,VALID,0,VALID,89.8115,VALID,0,VALID,19.0593,VALID,359,VALID,0,